This is the latest recevied weather packets stored in our database for station/object WD4DAN-13. If no packets are shown the sender has not sent any weather packets the latest 10 day(s).
| Time | Temp. | Humidity | Pressure | Rain* | Wind** | Luminosity | Snow |
|---|---|---|---|---|---|---|---|
| 1777833685 | 23.33° C | 36% | - | 0 mm | - | - | - |
| 1777833381 | 22.78° C | 39% | - | 0 mm | - | - | - |
| 1777833079 | 22.22° C | 41% | - | 0 mm | - | - | - |
| 1777832777 | 22.22° C | 38% | - | 0 mm | - | - | - |
| 1777832475 | 22.78° C | 36% | - | 0 mm | - | - | - |
| 1777832171 | 22.78° C | 40% | - | 0 mm | - | - | - |
| 1777831868 | 22.22° C | 39% | - | 0 mm | - | - | - |
| 1777831565 | 22.78° C | 39% | - | 0 mm | - | - | - |
| 1777831263 | 22.22° C | 37% | - | 0 mm | - | - | - |
| 1777830959 | 22.22° C | 36% | - | 0 mm | - | - | - |
| 1777830657 | 22.22° C | 39% | - | 0 mm | - | - | - |
| 1777830354 | 23.33° C | 45% | - | 0 mm | - | - | - |
| 1777830050 | 22.22° C | 40% | - | 0 mm | - | - | - |
| 1777829745 | 21.67° C | 39% | - | 0 mm | - | - | - |
| 1777829442 | 22.22° C | 39% | - | 0 mm | - | - | - |
| 1777829139 | 21.67° C | 38% | - | 0 mm | - | - | - |
| 1777828836 | 22.22° C | 38% | - | 0 mm | - | - | - |
| 1777828533 | 22.22° C | 36% | - | 0 mm | - | - | - |
| 1777828230 | 22.22° C | 39% | - | 0 mm | - | - | - |
| 1777827926 | 21.67° C | 38% | - | 0 mm | - | - | - |
| 1777827624 | 21.67° C | 39% | - | 0 mm | - | - | - |
| 1777827321 | 22.22° C | 46% | - | 0 mm | - | - | - |
| 1777827018 | 21.67° C | 41% | - | 0 mm | - | - | - |
| 1777826715 | 22.22° C | 38% | - | 0 mm | - | - | - |
| 1777826411 | 21.11° C | 41% | - | 0 mm | - | - | - |
* Rain latest hour (hover to see other rain measurements)
** Current wind speed in m/s (hover to see current wind gust speed)